#timestamp,LO_Frequency,Hit,StdDev 
1607821215.6,286046990.7,N
1607821235.4,286046996.2,N
1607821255.3,286046994.2,N
1607821275.1,286046993.1,N
1607821295.9,286046993.9,N
1607821315.7,286046996.3,N
1607821335.5,286046993.0,N
1607821355.4,286046991.4,N
1607821375.2,286046990.5,N
1607821395.0,286046991.4,N
1607821395.9,286046991.4,Y
1607821415.8,286047001.6,P
1607821435.6,286047002.4,N
1607821455.5,286046998.7,N
1607821475.3,286046999.5,N
1607821495.1,286046998.2,N
1607821515.9,286046996.7,N
1607821535.7,286047001.5,N
1607821555.5,286047000.3,N
1607821575.4,286047001.0,N
1607821595.2,286047002.7,N
1607821615.1,286046998.8,N
1607821616.0,286046998.8,N
1607821635.8,286047002.9,N
1607821655.6,286046998.5,N
1607821675.5,286046996.7,N
1607821695.3,286047002.0,N
1607821715.1,286047000.0,N
1607821735.9,286046996.5,N
1607821755.7,286047002.3,N
1607821775.6,286046999.8,N
1607821795.4,286046999.1,N
1607821815.2,286046996.7,N
1607821835.1,286046996.6,N
1607821836.0,286046996.6,N
1607821855.8,286046996.8,N
1607821875.6,286046999.5,N
1607821895.5,286047001.9,N
1607821915.3,286047002.7,N
1607821935.2,286047000.8,N
1607821955.9,286046997.1,N
1607821975.7,286046996.9,N
1607821995.6,286046997.1,N
1607822015.4,286046996.9,N
1607822035.2,286046996.5,N
1607822055.1,286046997.9,N
1607822056.0,286046997.9,N
1607822075.8,286046995.4,N
1607822095.7,286046995.4,N
1607822115.5,286046993.9,N
1607822135.3,286046994.1,N
1607822155.2,286046993.9,N
1607822175.0,286046996.1,N
1607822175.9,286046996.1,N
1607822195.7,286047002.7,N
1607822215.6,286047000.5,N
1607822235.4,286047001.2,N
1607822255.3,286046998.7,N
1607822275.1,286046996.9,N
1607822276.0,286046996.9,N
1607822295.8,286046998.6,N
1607822315.7,286047004.3,N
1607822335.5,286047001.1,N
1607822355.3,286046999.2,N
1607822375.2,286047001.2,N
1607822395.0,286047001.7,N
1607822395.9,286047001.7,N
1607822415.8,286047000.5,N
1607822435.6,286046999.8,N
1607822455.4,286047004.1,N
1607822475.3,286047002.5,N
1607822495.1,286047000.5,N
1607822515.9,286046999.7,N
1607822535.7,286046998.5,N
1607822555.5,286046998.6,N
1607822575.4,286046999.3,N
1607822595.2,286047001.3,N
1607822615.1,286047002.3,N
1607822616.0,286047002.3,N
1607822635.8,286047001.0,N
1607822655.6,286046998.2,N
1607822675.5,286046998.3,N
1607822695.3,286047001.8,N
1607822715.1,286047000.5,N
1607822735.9,286046998.3,N
1607822755.7,286046999.0,N
1607822775.6,286046998.5,N
1607822795.4,286047000.6,N
1607822815.2,286046998.8,N
1607822835.1,286046999.6,N
1607822836.0,286046999.6,N
1607822855.8,286046999.1,N
1607822875.6,286046998.7,N
1607822895.5,286046997.4,N
1607822915.3,286046997.9,N
1607822935.2,286046997.2,N
1607822955.9,286046997.0,N
1607822975.7,286046999.1,N
1607822995.6,286046996.9,N
1607823015.4,286046999.1,N
1607823035.2,286046998.7,N
1607823055.1,286047001.9,N
1607823056.0,286047001.9,N
1607823075.8,286046999.9,N
1607823095.7,286046999.8,N
1607823115.5,286047000.1,N
1607823135.3,286047002.5,N
1607823155.2,286046999.9,N
1607823175.0,286047000.2,N
1607823175.9,286047000.2,N
1607823195.7,286046998.5,N
1607823215.6,286047001.2,N
1607823235.4,286047005.7,Y
1607823255.3,286047008.4,P
1607823275.1,286047005.3,N
1607823276.0,286047005.3,N
1607823295.8,286047002.9,N
1607823315.7,286047005.4,N
1607823335.5,286047007.9,N
1607823355.3,286047005.4,N
1607823375.2,286047006.9,N
1607823395.0,286047005.6,N
1607823395.9,286047005.6,N
1607823415.8,286047004.4,N
1607823435.6,286047002.5,N
1607823455.4,286047004.8,N
1607823475.3,286047003.5,N
1607823495.1,286047003.1,N
1607823515.9,286047005.9,N
1607823535.7,286047001.6,N
1607823555.5,286047002.7,N
1607823575.4,286047002.6,N
1607823595.2,286046999.7,N
1607823615.0,286047002.1,N
1607823616.0,286047002.1,N
1607823635.8,286047001.3,N
1607823655.6,286047002.6,N
1607823675.5,286047004.4,N
1607823695.3,286047005.5,N
1607823715.1,286047002.1,N
1607823735.9,286047000.0,N
1607823755.7,286047000.4,N
1607823775.5,286047001.4,N
1607823795.4,286047001.4,N
1607823815.2,286047004.9,N
1607823835.1,286047004.8,N
1607823836.0,286047004.8,N
1607823855.8,286047003.4,N
1607823875.6,286047003.9,N
1607823895.5,286047011.9,Y
1607823915.3,286046999.2,P
1607823935.1,286047000.7,N
1607823955.9,286047000.7,N
1607823975.7,286047004.2,N
1607823995.6,286047005.3,N
1607824015.4,286047005.1,N
1607824035.2,286047008.2,Y
1607824055.1,286047004.0,P
1607824056.0,286047004.0,P
1607824075.8,286047006.8,P
1607824095.7,286047005.5,Y
1607824115.5,286046995.1,P
1607824135.3,286046997.5,N
1607824155.2,286047002.7,N
1607824175.0,286047000.1,N
1607824175.9,286047000.1,N
1607824195.7,286046998.1,N
1607824215.6,286046996.7,N
1607824235.4,286046995.2,N
1607824255.3,286046998.5,N
1607824275.1,286046996.6,N
1607824276.0,286046996.6,N
1607824295.8,286046998.0,N
1607824315.7,286046996.2,N
1607824335.5,286046993.7,N
1607824355.3,286046991.8,N
1607824375.2,286046996.4,N
1607824395.0,286046994.4,N
1607824395.9,286046994.4,N
1607824415.8,286046999.0,N
1607824435.6,286046999.3,N
1607824455.4,286046996.1,N
1607824475.3,286046996.1,N
1607824495.1,286046993.4,N
1607824515.8,286046994.3,N
1607824535.7,286046992.9,N
1607824555.5,286046994.5,N
1607824575.4,286046993.3,N
1607824595.2,286046993.4,N
1607824615.0,286046994.2,N
1607824615.9,286046994.2,N
1607824635.8,286046994.1,N
1607824655.6,286046994.2,N
1607824675.4,286046993.4,N
1607824695.3,286046995.5,N
1607824715.1,286046993.4,Y
1607824735.9,286046998.4,P
1607824755.7,286047001.2,N
1607824775.5,286047002.8,N
1607824795.4,286047004.3,N
